Weather Roundup
Issued by NWS

Home | Current Version | Previous Version | Text Only | Print | Product List | Glossary On
Versions: 1 2 3 4 5 6 7 8 9 10 11 12 13 14 15 16 17 18 19 20 21 22 23 24 25 26 27 28 29 30 31 32 33 34 35 36 37 38 39 40 41 42 43 44 45 46 47 48 49 50
822
NZUS93 KARX 240610
HRRWXR

CURRENT HOURLY OBSERVATIONS ACROSS
MUCH OF THE UPPER MISSISSIPPI VALLEY
NATIONAL WEATHER SERVICE LA CROSSE WI
100 AM CDT WED AUG 24 2016


...SOUTHEAST MINNESOTA...


CITY           SKY/WX    TMP DP  RH WIND       PRES   REMARKS
ROCHESTER      CLOUDY    66  66 100 SE12      29.86F
ROCHESTER/MAYO MOCLDY    66  66 100 E9        29.85F
WINONA         CLOUDY    70  68  94 S7G16     29.86F
AUSTIN         TSTM      66  63  88 SE7       29.85S
ALBERT LEA     CLOUDY    68  66  94 CALM      29.84R
DODGE CENTER   CLOUDY    66  64  94 SE10      29.85S
PRESTON        TSTM      65  63  94 SE10      29.89S
OWATONNA       CLOUDY    68  64  88 SE7       29.82F
FARIBAULT      CLOUDY    66  66 100 CALM      29.83S
$$

...ELSEWHERE IN MINNESOTA...


CITY           SKY/WX    TMP DP  RH WIND       PRES   REMARKS
MINNEAPOLIS    CLOUDY    69  65  86 SE7       29.82F
INTNL FALLS    CLEAR     71  68  90 S3        29.77R
DULUTH         CLOUDY    69  65  86 S9        29.85F
RED WING       TSTM      70  66  88 SE13      29.83S VSB 3/4
REDWOOD FALLS  CLOUDY    67  65  93 CALM      29.81F
MANKATO        CLOUDY    66  63  88 SE9       29.82F
WORTHINGTON    CLOUDY    71  69  93 SW8       29.83S
FAIRMONT         N/A    N/A N/A N/A MISG        N/A
$$

...SOUTHWEST WISCONSIN...


CITY           SKY/WX    TMP DP  RH WIND       PRES   REMARKS
LA CROSSE      HVY RAIN  68  32  26 S14       29.92R
PRAIRIE DU CHI CLOUDY    67  66  96 CALM      29.93S
BOSCOBEL       TSTM      68  67  96 CALM      29.95R FOG
LONE ROCK      CLOUDY    72  68  87 S12       29.95F
PLATTEVILLE    CLOUDY    72  71  96 S15G24    29.96F
FORT MC COY    RAIN      65  65  99 E7        29.92F
CAMP DOUGLAS   RAIN      68  66  94 SE2       29.94F
MAUSTON-NEW LI RAIN      69  68  95 W6        29.96S
VIROQUA        CLOUDY    65  65 100 SE3       29.95S
WIS DELLS      CLOUDY    69  66  90 W3        29.98R
$$

...ELSEWHERE IN WISCONSIN...


CITY           SKY/WX    TMP DP  RH WIND       PRES   REMARKS
MILWAUKEE      CLOUDY    75  62  64 S10       30.04S
MADISON        CLOUDY    72  66  81 S18G26    29.98F
GREEN BAY      CLOUDY    67  64  90 S6        30.00F
EAU CLAIRE     CLOUDY    69  67  93 SE8       29.86R
BLACK RVR FLS    N/A     67  67 100 SE12G18   29.86F
MEDFORD        LGT RAIN  65  65 100 SE12G18   29.91F
WAUSAU         RAIN      67  63  87 S12       29.95S
WIS RAPIDS     HVY RAIN  67  67 100 VRB3      29.98F FOG
MARSHFIELD     RAIN      67  64  90 SE17      29.90F FOG
RICE LAKE      CLOUDY    66  64  91 S7        29.88R
$$

...NORTHEAST IOWA...


CITY           SKY/WX    TMP DP  RH WIND       PRES   REMARKS
WATERLOO       CLOUDY    74  70  87 S17       29.89R
DUBUQUE        CLOUDY    71  68  90 S17       29.97F
DECORAH        LGT RAIN  66  66 100 VRB6G23   29.92R
MASON CITY     CLOUDY    70  69  97 NW9       29.89R
CHARLES CITY   CLOUDY    70  70 100 NE8G18    29.90R
OELWEIN        CLOUDY    73  72  94 S17G24    29.93R
$$

...ELSEWHERE IN IOWA...


CITY           SKY/WX    TMP DP  RH WIND       PRES   REMARKS
DES MOINES     CLOUDY    78  73  84 S16G22    29.85R
IOWA CITY      CLOUDY    73  70  90 S13       29.97S
FORT DODGE     CLOUDY    75  72  88 S9        29.85R
MARSHALLTOWN   CLOUDY    75  73  93 S10       29.89R
CEDAR RAPIDS   CLOUDY    73  72  96 S13G21    29.93F
$$

...NORTHERN ILLINOIS...


CITY           SKY/WX    TMP DP  RH WIND       PRES   REMARKS
CHICAGO-OHARE  CLOUDY    74  62  66 S15       30.08R
CHICAGO-MIDWAY CLOUDY    75  61  61 S14G24    30.08S
MOLINE         CLOUDY    72  67  84 S12       29.99F
ROCKFORD       CLOUDY    73  65  75 S16       30.05S
PEORIA         PTCLDY    70  67  90 S13       30.06F
$$

NOTE: "FAIR" INDICATES FEW OR NO CLOUDS BELOW 12,000 FEET WITH NO
SIGNIFICANT WEATHER AND/OR OBSTRUCTIONS TO VISIBILITY. WIND
SPEEDS ARE IN MILES-PER-HOUR.




USA.gov is the U.S. government's official web portal to all federal, state and local government web resources and services.